Regional Weather Roundup
Issued by NWS

Home | Current Version | Previous Version | Graphics & Text | Print | Product List | Glossary On
Versions: 1 2 3 4 5 6 7 8 9 10 11 12 13 14 15 16 17 18 19 20 21 22 23 24 25 26 27 28 29 30 31 32 33 34 35 36 37 38 39 40 41 42 43 44 45 46 47 48 49 50
698
ASUS44 KMEG 180900
RWRTN
TENNESSEE HOURLY STATE WEATHER ROUNDUP
NATIONAL WEATHER SERVICE MEMPHIS TN
300 AM CST SAT NOV 18 2017

TNZ002-004-019-021-049-052-054-088>092-181000-
WEST TENNESSEE

CITY           SKY/WX    TMP DP  RH WIND       PRES   REMARKS
MEMPHIS INTL   CLOUDY    69  61  75 S17G29    29.74S
NWS MEMPHIS      N/A     69 N/A N/A MISG        N/A
JACKSON        CLOUDY    68  59  73 SW18G28   29.73F
DYERSBURG      CLOUDY    67  58  72 VRB6      29.68F
$$

TNZ008-025-027-028-033-062-065-066-181000-
NORTH MIDDLE TENNESSEE

CITY           SKY/WX    TMP DP  RH WIND       PRES   REMARKS
NASHVILLE      CLOUDY    61  47  59 S17G26    29.82F
CLARKSVILLE    CLOUDY    64  53  67 S23G32    29.73F
SMYRNA         CLOUDY    61  46  57 S14G21    29.84F
CROSSVILLE     MOCLDY    52  37  56 S9        29.95F
$$

TNZ061-075-076-078-094-096-097-181000-
SOUTH MIDDLE TENNESSEE

CITY           SKY/WX    TMP DP  RH WIND       PRES   REMARKS
WINCHESTER     CLEAR     55  41  58 S14       29.92F
$$

TNZ017-018-042-046-047-181000-
NORTHEAST TENNESSEE

CITY           SKY/WX    TMP DP  RH WIND       PRES   REMARKS
TRI CITIES     CLOUDY    43  37  79 CALM      29.96F
$$

TNZ012-013-036-069-073-074-181000-
CENTRAL EAST TENNESSEE

CITY           SKY/WX    TMP DP  RH WIND       PRES   REMARKS
KNOXVILLE      CLOUDY    44  42  93 CALM      29.96S
OAK RIDGE      CLOUDY    51  42  71 SW5       29.98F
$$

TNZ083-085-099-181000-
SOUTHEAST TENNESSEE

CITY           SKY/WX    TMP DP  RH WIND       PRES   REMARKS
CHATTANOOGA    CLOUDY    49  42  77 CALM      29.99F
$$

SKY/WX REPORTED AS FAIR MEANS FEW OR NO CLOUDS BELOW
12 THOUSAND FEET.





USA.gov is the U.S. government's official web portal to all federal, state and local government web resources and services.